User: anonymous   Login
Location: Unspecified
(0.0000°N, 0.0000°E)
Time: 13:52:42
(UTC+00:00)
Language:

MERIDIAN 2 - Orbit

View from above orbital plane
View from above orbital plane
View from above satellite
View from above satellite

Ground track
Ground track

The orbit data is extracted from the following two-line orbital elements,

1 35008U 09029A   17324.21354221 -.00000129  00000-0  10000-3 0  9990
2 35008  64.4660  17.9638 7224525 253.2666  22.0810  2.24490896 69579
Epoch (UTC): 20 November 2017 05:07:30
Eccentricity: 0.7224525
inclination: 64.4660°
perigee height: 460 km
apogee height: 36059 km
right ascension of ascending node: 17.9638°
argument of perigee: 253.2666°
revolutions per day: 2.24490896
mean anomaly at epoch: 22.0810°
orbit number at epoch: 6957

The dashed part of the orbit path shows where the satellite is in the earth's shadow,  

DLR